Total_Precipitation_Accumulation
0.10 0.08 0.07 0.07 0.06 0.05 0.05 0.05 0.05 0.05 0.05 0.05 0.06 0.06 0.07 0.08 0.10 0.12 0.11 0.10 0.10 0.09 0.09 0.10 0.10 0.11 0.13 0.13 0.15 0.19 0.23 0.33 0.38 0.21 0.14 0.18 0.24 0.27 0.31 0.37 0.38 0.41 0.53
0.07 0.06 0.06 0.06 0.05 0.05 0.05 0.05 0.05 0.06 0.07 0.07 0.08 0.10 0.10 0.10 0.11 0.12 0.11 0.10 0.10 0.10 0.11 0.13 0.13 0.13 0.14 0.15 0.19 0.22 0.26 0.35 0.48 0.40 0.29 0.32 0.36 0.38 0.48 0.50 0.47 0.42 0.50
0.07 0.06 0.05 0.06 0.06 0.07 0.07 0.08 0.08 0.09 0.10 0.11 0.13 0.14 0.12 0.11 0.11 0.11 0.11 0.11 0.11 0.12 0.14 0.15 0.15 0.18 0.19 0.22 0.29 0.33 0.35 0.40 0.51 0.53 0.42 0.45 0.50 0.57 0.68 0.63 0.53 0.48 0.43
0.08 0.07 0.07 0.08 0.10 0.11 0.11 0.12 0.13 0.14 0.15 0.16 0.15 0.14 0.13 0.11 0.10 0.09 0.09 0.08 0.10 0.12 0.16 0.19 0.22 0.27 0.30 0.34 0.36 0.35 0.39 0.45 0.49 0.56 0.53 0.56 0.62 0.68 0.69 0.69 0.58 0.50 0.47
0.10 0.10 0.12 0.14 0.16 0.17 0.17 0.17 0.18 0.19 0.17 0.17 0.15 0.13 0.12 0.10 0.06 0.04 0.04 0.06 0.09 0.12 0.15 0.17 0.22 0.30 0.36 0.35 0.33 0.33 0.41 0.50 0.53 0.60 0.63 0.61 0.59 0.65 0.65 0.57 0.50 0.43 0.39
0.21 0.24 0.23 0.22 0.22 0.22 0.22 0.22 0.23 0.21 0.19 0.15 0.12 0.09 0.08 0.05 0.04 0.05 0.05 0.07 0.11 0.15 0.18 0.17 0.16 0.19 0.19 0.20 0.27 0.33 0.41 0.56 0.74 0.83 0.73 0.61 0.48 0.46 0.48 0.47 0.48 0.44 0.38
0.35 0.33 0.30 0.27 0.26 0.25 0.22 0.24 0.22 0.18 0.14 0.11 0.08 0.05 0.05 0.04 0.03 0.04 0.05 0.07 0.12 0.18 0.20 0.18 0.13 0.09 0.12 0.15 0.21 0.27 0.36 0.52 0.73 0.95 0.90 0.62 0.53 0.46 0.49 0.52 0.51 0.52 0.47
0.38 0.35 0.30 0.24 0.22 0.21 0.22 0.20 0.14 0.10 0.08 0.07 0.05 0.03 0.04 0.03 0.02 0.02 0.03 0.05 0.10 0.14 0.16 0.15 0.14 0.10 0.14 0.22 0.23 0.24 0.31 0.43 0.59 0.68 0.86 0.70 0.55 0.53 0.53 0.52 0.52 0.51 0.41
0.34 0.27 0.20 0.16 0.16 0.14 0.11 0.09 0.08 0.08 0.07 0.05 0.03 0.02 0.03 0.03 0.02 0.01 0.02 0.03 0.06 0.09 0.10 0.10 0.09 0.10 0.18 0.32 0.38 0.43 0.50 0.63 0.76 0.93 1.08 1.03 0.91 0.81 0.66 0.56 0.53 0.44 0.36
0.20 0.16 0.13 0.11 0.08 0.05 0.05 0.07 0.07 0.07 0.06 0.04 0.02 0.02 0.03 0.04 0.01 0.00 0.01 0.03 0.04 0.05 0.05 0.06 0.10 0.14 0.24 0.40 0.53 0.61 0.69 0.83 0.81 0.88 1.05 1.10 0.93 0.91 0.94 0.76 0.57 0.42 0.34
0.10 0.08 0.07 0.05 0.03 0.02 0.03 0.05 0.05 0.04 0.03 0.02 0.02 0.03 0.03 0.03 0.01 0.00 0.00 0.02 0.03 0.04 0.05 0.09 0.16 0.24 0.31 0.50 0.68 0.71 0.87 1.00 0.93 0.81 0.74 0.73 0.77 0.78 0.76 0.73 0.57 0.39 0.31
0.04 0.04 0.03 0.01 0.01 0.01 0.02 0.03 0.02 0.02 0.02 0.01 0.02 0.02 0.02 0.03 0.02 0.01 0.00 0.01 0.03 0.07 0.12 0.19 0.28 0.34 0.39 0.59 0.73 0.91 1.12 1.19 0.95 0.76 0.58 0.51 0.49 0.54 0.58 0.54 0.45 0.35 0.29
0.03 0.03 0.01 0.01 0.01 0.01 0.02 0.02 0.01 0.01 0.01 0.01 0.02 0.02 0.03 0.03 0.02 0.01 0.01 0.02 0.04 0.09 0.18 0.30 0.37 0.40 0.53 0.74 0.99 1.17 1.24 1.13 0.96 0.73 0.53 0.48 0.44 0.42 0.45 0.47 0.44 0.35 0.28
0.03 0.02 0.01 0.01 0.01 0.01 0.01 0.01 0.01 0.01 0.01 0.02 0.03 0.03 0.04 0.04 0.03 0.03 0.03 0.04 0.05 0.08 0.17 0.30 0.42 0.50 0.64 0.87 1.07 1.17 1.15 1.05 0.88 0.67 0.56 0.55 0.49 0.44 0.43 0.39 0.34 0.26 0.24
0.02 0.01 0.01 0.01 0.01 0.01 0.01 0.00 0.01 0.01 0.01 0.02 0.04 0.05 0.07 0.06 0.05 0.06 0.08 0.08 0.09 0.12 0.19 0.24 0.31 0.45 0.64 0.81 0.96 1.03 1.00 0.93 0.82 0.60 0.51 0.54 0.55 0.49 0.44 0.37 0.28 0.19 0.18
0.01 0.01 0.01 0.01 0.01 0.01 0.02 0.02 0.01 0.00 0.01 0.02 0.03 0.04 0.05 0.05 0.04 0.05 0.07 0.10 0.14 0.19 0.21 0.25 0.34 0.49 0.68 0.84 0.95 0.95 0.87 0.79 0.68 0.54 0.46 0.45 0.45 0.42 0.40 0.33 0.24 0.18 0.17
0.00 0.01 0.00 0.00 0.01 0.01 0.02 0.03 0.04 0.03 0.03 0.03 0.02 0.03 0.03 0.03 0.03 0.04 0.07 0.11 0.14 0.18 0.20 0.30 0.41 0.53 0.69 0.82 0.88 0.87 0.82 0.72 0.60 0.50 0.44 0.40 0.36 0.34 0.30 0.26 0.21 0.18 0.16
0.00 0.00 0.00 0.00 0.00 0.01 0.02 0.03 0.04 0.06 0.09 0.10 0.06 0.03 0.03 0.03 0.05 0.05 0.07 0.09 0.11 0.16 0.26 0.39 0.49 0.55 0.62 0.69 0.75 0.79 0.80 0.71 0.60 0.51 0.46 0.42 0.35 0.29 0.24 0.19 0.16 0.14 0.12
0.00 0.00 0.01 0.00 0.00 0.01 0.01 0.02 0.04 0.05 0.07 0.08 0.07 0.04 0.04 0.06 0.07 0.09 0.10 0.11 0.18 0.26 0.34 0.44 0.50 0.54 0.56 0.56 0.60 0.65 0.66 0.64 0.58 0.51 0.47 0.44 0.37 0.27 0.19 0.14 0.10 0.08 0.08
0.00 0.00 0.00 0.00 0.00 0.00 0.01 0.02 0.03 0.04 0.07 0.09 0.09 0.07 0.08 0.10 0.11 0.13 0.13 0.14 0.20 0.28 0.35 0.42 0.46 0.49 0.48 0.49 0.49 0.50 0.52 0.53 0.50 0.47 0.44 0.41 0.34 0.23 0.16 0.12 0.09 0.08 0.06
0.01 0.00 0.00 0.00 0.00 0.00 0.00 0.01 0.02 0.03 0.05 0.08 0.10 0.10 0.14 0.15 0.17 0.20 0.21 0.22 0.25 0.30 0.34 0.35 0.37 0.40 0.40 0.39 0.38 0.39 0.42 0.45 0.46 0.47 0.44 0.39 0.29 0.21 0.16 0.12 0.08 0.05 0.03
0.00 0.00 0.00 0.00 0.00 0.00 0.00 0.01 0.01 0.02 0.04 0.06 0.08 0.10 0.16 0.16 0.18 0.22 0.26 0.29 0.31 0.32 0.31 0.31 0.31 0.32 0.33 0.33 0.32 0.32 0.35 0.38 0.43 0.46 0.45 0.38 0.28 0.20 0.14 0.10 0.06 0.04 0.03
0.00 0.00 0.00 0.00 0.00 0.00 0.00 0.00 0.01 0.01 0.02 0.03 0.05 0.08 0.12 0.17 0.23 0.27 0.30 0.31 0.31 0.31 0.27 0.25 0.27 0.30 0.29 0.27 0.26 0.29 0.32 0.36 0.41 0.44 0.43 0.36 0.26 0.19 0.14 0.09 0.06 0.05 0.03
0.00 0.00 0.00 0.00 0.00 0.00 0.00 0.00 0.00 0.00 0.01 0.02 0.03 0.06 0.10 0.16 0.24 0.32 0.36 0.34 0.32 0.31 0.29 0.28 0.29 0.28 0.25 0.21 0.20 0.19 0.21 0.26 0.34 0.41 0.38 0.32 0.24 0.17 0.12 0.09 0.06 0.04 0.02
0.00 0.00 0.00 0.00 0.00 0.00 0.00 0.00 0.00 0.00 0.00 0.01 0.01 0.03 0.06 0.10 0.16 0.25 0.33 0.38 0.39 0.38 0.35 0.34 0.33 0.30 0.25 0.19 0.14 0.12 0.17 0.24 0.29 0.32 0.34 0.29 0.22 0.16 0.13 0.10 0.07 0.03 0.02
0.00 0.00 0.00 0.00 0.00 0.00 0.00 0.00 0.00 0.00 0.00 0.00 0.01 0.01 0.03 0.05 0.09 0.15 0.22 0.30 0.35 0.40 0.43 0.46 0.45 0.35 0.25 0.19 0.17 0.17 0.18 0.19 0.19 0.20 0.25 0.26 0.19 0.15 0.14 0.11 0.06 0.03 0.02